Flag for Germany Weather past 2 weeks in Neuwied, Rhineland-Palatinate, Germany

Now
63 °F

Mild.


Feels Like: 63 °F
Forecast: 54 / 64 °F
Wind: 12 mph from Southwest

Location: Buechel

Current Time: Aug 30, 2014 at 4:14:37 PM

Latest Report: Aug 30, 2014 at 3:20 PM


Visibility: N/A

Pressure: 30.07 "Hg

Humidity: 68%

Dew point: 52 °F

Location of NeuwiedLocation

Historic Weather in Neuwied — Graph

°F

Neuwied temperature yesterday

Maximum temperature yesterday: 68 °F (at 2:20 PM)
Minimum temperature yesterday: 55 °F (at 6:20 AM)
Average temperature yesterday: 62 °F

Past Weeks' High & Low Weather Summary

 TemperatureHumidityPressure
High68 °F (Aug 29, 2:20 PM)100% (Aug 17, 6:20 AM)30.12 "Hg (Aug 17, 6:20 AM)
Low41 °F (Aug 24, 7:20 AM)51% (Aug 20, 3:20 PM)29.62 "Hg (Aug 26, 5:20 AM)
Average55 °F82%29.96 "Hg
* Reported Aug 15 2:20 PM — Aug 30 2:20 PM, Neuwied, Weather by CustomWeather, © 2014

Note: Actual official high and low records may vary slightly from our data, if they occured in-between our weather recording intervals... More about our weather records

Advertising

Neuwied weather history for previous 24 hours

 ConditionsComfort  
Time TempWeatherWind HumidityBarometerVisibility
2:20 PM
Aug 30
63 °FMild.12 mph68%30.07 "HgN/A
1:20 PM63 °FMild.14 mph68%30.07 "HgN/A
12:20 PM63 °FMild.14 mph73%30.09 "HgN/A
11:20 AM61 °FCool.12 mph77%30.09 "HgN/A
10:20 AM59 °FCool.9 mph82%30.09 "HgN/A
9:20 AM55 °FCool.9 mph94%30.09 "HgN/A
8:20 AM54 °FCool.6 mph94%30.09 "Hg4 mi
7:20 AM54 °FCool.8 mph94%30.07 "Hg5 mi
6:20 AM54 °FCool.8 mph94%30.07 "Hg4 mi
5:20 AM54 °FCool.7 mph94%30.07 "Hg4 mi
4:20 AM52 °FCool.6 mph94%30.07 "Hg1 mi
3:20 AM54 °FCool.5 mph88%30.07 "HgN/A
2:20 AM54 °FCool.6 mph94%30.07 "HgN/A
1:20 AM55 °FCool.6 mph88%30.07 "HgN/A
12:20 AM55 °FCool.6 mph88%30.07 "Hg6 mi
11:20 PM
Aug 29
57 °FCool.5 mph88%30.07 "HgN/A
10:20 PM59 °FCool.6 mph88%30.07 "Hg6 mi
8:20 PM63 °FMild.5 mph77%30.04 "Hg6 mi
7:20 PM64 °FMild.5 mph78%30.04 "HgN/A
6:20 PM66 °FMild.7 mph73%30.04 "HgN/A
5:20 PM68 °FMild.8 mph64%30.01 "HgN/A
4:20 PM68 °FMild.8 mph64%30.04 "HgN/A
Weather by CustomWeather, © 2014

See weather overviewHow to use our weather pages